OAS4808 SKPP-SKBO

Flight info

Callsign OAS4808
Flight time 0h 42m
Altitude 26000
Route CLO1L CLO DCT TOLIM TOLIM5E
Aircraft A20N/M-SDE2E3FGHIRWXY/LB1

Departure

Time 2026-05-06 18:06
Airport Guillermo León Valencia Airport (SKPP)

Arrival

Time 2026-05-06 18:48
Airport El Dorado International Airport (SKBO)
Time Latitude Longitude Altitude Speed Heading
2026-05-06 17:44 2.45296 -76.61001 5671 ft 0 kts 160°
2026-05-06 17:56 2.45299 -76.61002 5663 ft 3 kts 159°
2026-05-06 17:56 2.45317 -76.61012 5661 ft 3 kts 125°
2026-05-06 17:57 2.45325 -76.61032 5662 ft 3 kts 89°
2026-05-06 17:57 2.45323 -76.61048 5665 ft 0 kts 70°
2026-05-06 18:01 2.45328 -76.61034 5659 ft 6 kts 70°
2026-05-06 18:01 2.45351 -76.60983 5667 ft 7 kts 43°
2026-05-06 18:01 2.45386 -76.60992 5666 ft 7 kts 341°
2026-05-06 18:01 2.45434 -76.60993 5666 ft 6 kts 55°
2026-05-06 18:02 2.45450 -76.60945 5666 ft 9 kts 71°
2026-05-06 18:02 2.45475 -76.60875 5667 ft 13 kts 70°
2026-05-06 18:02 2.45509 -76.60780 5667 ft 16 kts 70°
2026-05-06 18:02 2.45549 -76.60664 5665 ft 19 kts 71°
2026-05-06 18:03 2.45593 -76.60540 5665 ft 19 kts 70°
2026-05-06 18:03 2.45639 -76.60411 5669 ft 20 kts 70°
2026-05-06 18:03 2.45689 -76.60271 5668 ft 22 kts 71°
2026-05-06 18:03 2.45739 -76.60126 5671 ft 13 kts 68°
2026-05-06 18:04 2.45784 -76.60073 5663 ft 3 kts 92°
2026-05-06 18:04 2.45771 -76.60071 5662 ft 3 kts 179°
2026-05-06 18:04 2.45757 -76.60082 5660 ft 3 kts 227°
2026-05-06 18:04 2.45748 -76.60102 5662 ft 0 kts 249°
2026-05-06 18:05 2.45732 -76.60144 5671 ft 34 kts 249°
2026-05-06 18:05 2.45559 -76.60630 5663 ft 111 kts 251°
2026-05-06 18:05 2.45233 -76.61539 5818 ft 153 kts 249°
2026-05-06 18:06 2.44894 -76.62492 6735 ft 146 kts 251°
2026-05-06 18:06 2.44571 -76.63452 7331 ft 148 kts 252°
2026-05-06 18:06 2.44338 -76.64137 7570 ft 161 kts 250°
2026-05-06 18:06 2.43801 -76.65645 8052 ft 189 kts 249°
2026-05-06 18:07 2.43337 -76.66964 8433 ft 213 kts 255°
2026-05-06 18:07 2.43369 -76.68508 8770 ft 237 kts 288°
2026-05-06 18:07 2.44282 -76.69959 9088 ft 260 kts 320°
2026-05-06 18:07 2.45908 -76.70838 9575 ft 275 kts 349°
2026-05-06 18:08 2.47804 -76.70833 10365 ft 274 kts 18°
2026-05-06 18:08 2.49452 -76.69952 11243 ft 269 kts 46°
2026-05-06 18:08 2.50220 -76.68996 11835 ft 266 kts 63°
2026-05-06 18:08 2.51003 -76.67313 12695 ft 269 kts 69°
2026-05-06 18:09 2.51827 -76.65626 13568 ft 272 kts 63°
2026-05-06 18:09 2.52857 -76.64029 14411 ft 276 kts 56°
2026-05-06 18:09 2.54062 -76.62512 15147 ft 281 kts 52°
2026-05-06 18:09 2.55371 -76.61042 15874 ft 285 kts 50°
2026-05-06 18:10 2.56764 -76.59617 16612 ft 289 kts 42°
2026-05-06 18:10 2.58487 -76.58535 17307 ft 297 kts 26°
2026-05-06 18:10 2.60489 -76.57953 18005 ft 304 kts 14°
2026-05-06 18:10 2.62630 -76.57509 18269 ft 325 kts 14°
2026-05-06 18:11 2.64912 -76.57023 18441 ft 345 kts 15°
2026-05-06 18:11 2.67327 -76.56500 18586 ft 365 kts 15°
2026-05-06 18:11 2.69867 -76.55947 18729 ft 382 kts 14°
2026-05-06 18:11 2.72500 -76.55375 19143 ft 389 kts 14°
2026-05-06 18:12 2.75154 -76.54800 19704 ft 392 kts 14°
2026-05-06 18:12 2.77834 -76.54218 20233 ft 396 kts 14°
2026-05-06 18:12 2.80534 -76.53631 20804 ft 398 kts 14°
2026-05-06 18:12 2.83255 -76.53039 21358 ft 402 kts 14°
2026-05-06 18:13 2.86000 -76.52441 21917 ft 406 kts 14°
2026-05-06 18:13 2.88768 -76.51838 22498 ft 408 kts 14°
2026-05-06 18:13 2.91558 -76.51231 23001 ft 413 kts 14°
2026-05-06 18:13 2.94372 -76.50618 23533 ft 416 kts 14°
2026-05-06 18:14 2.97212 -76.49998 23993 ft 419 kts 14°
2026-05-06 18:14 3.00067 -76.49376 24433 ft 422 kts 14°
2026-05-06 18:14 3.02944 -76.48749 24868 ft 425 kts 14°
2026-05-06 18:14 3.05840 -76.48117 25275 ft 428 kts 14°
2026-05-06 18:15 3.08758 -76.47481 25713 ft 431 kts 14°
2026-05-06 18:15 3.11700 -76.46840 25948 ft 433 kts 14°
2026-05-06 18:15 3.14646 -76.46198 26020 ft 434 kts 14°
2026-05-06 18:15 3.17595 -76.45555 26020 ft 434 kts 14°
2026-05-06 18:16 3.20544 -76.44912 26021 ft 433 kts 14°
2026-05-06 18:16 3.23492 -76.44269 26024 ft 434 kts 14°
2026-05-06 18:16 3.26072 -76.43707 26034 ft 434 kts 14°
2026-05-06 18:16 3.29019 -76.43064 26027 ft 433 kts 14°
2026-05-06 18:17 3.31964 -76.42421 26029 ft 433 kts 14°
2026-05-06 18:17 3.34911 -76.41778 26038 ft 433 kts 14°
2026-05-06 18:17 3.37815 -76.40984 26035 ft 431 kts 22°
2026-05-06 18:17 3.40518 -76.39708 26045 ft 429 kts 32°
2026-05-06 18:18 3.42941 -76.37986 26050 ft 427 kts 42°
2026-05-06 18:18 3.45115 -76.35971 26053 ft 426 kts 45°
2026-05-06 18:18 3.47286 -76.33941 26049 ft 426 kts 44°
2026-05-06 18:18 3.49454 -76.31919 26048 ft 426 kts 44°
2026-05-06 18:19 3.51624 -76.29898 26046 ft 426 kts 44°
2026-05-06 18:19 3.53798 -76.27873 26044 ft 427 kts 44°
2026-05-06 18:19 3.55971 -76.25849 26053 ft 426 kts 44°
2026-05-06 18:19 3.58143 -76.23825 26051 ft 427 kts 44°
2026-05-06 18:20 3.60314 -76.21801 26055 ft 427 kts 44°
2026-05-06 18:20 3.62487 -76.19775 26057 ft 427 kts 44°
2026-05-06 18:20 3.64661 -76.17748 26072 ft 427 kts 44°
2026-05-06 18:20 3.66837 -76.15718 26077 ft 428 kts 44°
2026-05-06 18:21 3.69007 -76.13696 26088 ft 427 kts 44°
2026-05-06 18:21 3.71181 -76.11669 26095 ft 427 kts 44°
2026-05-06 18:21 3.73350 -76.09645 26115 ft 427 kts 44°
2026-05-06 18:21 3.75527 -76.07615 26125 ft 427 kts 44°
2026-05-06 18:22 3.77701 -76.05587 26131 ft 427 kts 44°
2026-05-06 18:22 3.79873 -76.03561 26141 ft 427 kts 44°
2026-05-06 18:22 3.82045 -76.01535 26147 ft 427 kts 44°
2026-05-06 18:22 3.84189 -75.99535 26153 ft 427 kts 44°
2026-05-06 18:23 3.86361 -75.97509 26149 ft 427 kts 44°
2026-05-06 18:23 3.88526 -75.95489 26154 ft 425 kts 44°
2026-05-06 18:23 3.90698 -75.93462 26156 ft 426 kts 44°
2026-05-06 18:23 3.92864 -75.91440 26150 ft 426 kts 44°
2026-05-06 18:24 3.95026 -75.89422 26150 ft 425 kts 44°
2026-05-06 18:24 3.97190 -75.87401 26159 ft 425 kts 44°
2026-05-06 18:24 3.99354 -75.85381 26157 ft 424 kts 44°
2026-05-06 18:24 4.01518 -75.83361 26159 ft 425 kts 44°
2026-05-06 18:25 4.03679 -75.81344 26158 ft 425 kts 44°
2026-05-06 18:25 4.05840 -75.79327 26165 ft 426 kts 44°
2026-05-06 18:25 4.08011 -75.77300 26157 ft 426 kts 44°
2026-05-06 18:25 4.10176 -75.75278 26160 ft 426 kts 44°
2026-05-06 18:26 4.12346 -75.73251 26147 ft 427 kts 44°
2026-05-06 18:26 4.14516 -75.71224 26135 ft 427 kts 44°
2026-05-06 18:26 4.16685 -75.69199 26134 ft 427 kts 44°
2026-05-06 18:26 4.18856 -75.67171 26124 ft 426 kts 44°
2026-05-06 18:27 4.21027 -75.65144 26128 ft 426 kts 44°
2026-05-06 18:27 4.23194 -75.63119 26123 ft 426 kts 44°
2026-05-06 18:27 4.25361 -75.61095 26119 ft 426 kts 44°
2026-05-06 18:27 4.27526 -75.59071 26111 ft 426 kts 44°
2026-05-06 18:28 4.29693 -75.57047 26111 ft 426 kts 44°
2026-05-06 18:28 4.31856 -75.55026 26110 ft 425 kts 44°
2026-05-06 18:28 4.34016 -75.53007 26116 ft 424 kts 44°
2026-05-06 18:28 4.36112 -75.50934 26127 ft 423 kts 49°
2026-05-06 18:29 4.37959 -75.48654 26130 ft 421 kts 55°
2026-05-06 18:29 4.39537 -75.46185 26130 ft 420 kts 61°
2026-05-06 18:29 4.40949 -75.43616 26124 ft 421 kts 62°
2026-05-06 18:29 4.42370 -75.41052 26109 ft 421 kts 62°
2026-05-06 18:30 4.43801 -75.38484 26102 ft 422 kts 61°
2026-05-06 18:30 4.45232 -75.35916 26095 ft 423 kts 61°
2026-05-06 18:30 4.46666 -75.33340 26086 ft 424 kts 61°
2026-05-06 18:30 4.48104 -75.30756 26077 ft 424 kts 61°
2026-05-06 18:31 4.49533 -75.28188 26071 ft 421 kts 61°
2026-05-06 18:31 4.50963 -75.25615 26061 ft 423 kts 61°
2026-05-06 18:31 4.52396 -75.23037 26048 ft 424 kts 61°
2026-05-06 18:31 4.53833 -75.20451 25774 ft 424 kts 61°
2026-05-06 18:32 4.55265 -75.17873 24914 ft 424 kts 61°
2026-05-06 18:32 4.56690 -75.15309 23865 ft 427 kts 61°
2026-05-06 18:32 4.58134 -75.12711 23349 ft 412 kts 61°
2026-05-06 18:32 4.59487 -75.10276 23093 ft 390 kts 61°
2026-05-06 18:33 4.60768 -75.07971 22561 ft 380 kts 61°
2026-05-06 18:33 4.62040 -75.05682 22244 ft 371 kts 61°
2026-05-06 18:33 4.63290 -75.03431 21973 ft 369 kts 61°
2026-05-06 18:33 4.64543 -75.01175 21474 ft 372 kts 61°
2026-05-06 18:34 4.65799 -74.98913 20946 ft 371 kts 62°
2026-05-06 18:34 4.67051 -74.96657 20421 ft 369 kts 62°
2026-05-06 18:34 4.68293 -74.94421 19931 ft 365 kts 62°
2026-05-06 18:34 4.69521 -74.92208 19468 ft 361 kts 62°
2026-05-06 18:35 4.70737 -74.90018 19000 ft 358 kts 62°
2026-05-06 18:35 4.71940 -74.87853 18427 ft 353 kts 62°
2026-05-06 18:35 4.73127 -74.85716 17643 ft 349 kts 62°
2026-05-06 18:35 4.74302 -74.83597 16976 ft 345 kts 62°
2026-05-06 18:36 4.75566 -74.81583 16686 ft 338 kts 50°
2026-05-06 18:36 4.77409 -74.80133 16602 ft 344 kts 28°
2026-05-06 18:36 4.79716 -74.79393 16596 ft 354 kts 17°
2026-05-06 18:36 4.82012 -74.78402 16589 ft 360 kts 36°
2026-05-06 18:37 4.83785 -74.76757 16584 ft 338 kts 56°
2026-05-06 18:37 4.84763 -74.74719 16588 ft 317 kts 77°
2026-05-06 18:37 4.85019 -74.72589 16589 ft 301 kts 87°
2026-05-06 18:37 4.85122 -74.70487 16588 ft 306 kts 86°
2026-05-06 18:38 4.85335 -74.68332 16590 ft 313 kts 82°
2026-05-06 18:38 4.85684 -74.66172 16471 ft 312 kts 80°
2026-05-06 18:38 4.86110 -74.64074 16094 ft 305 kts 78°
2026-05-06 18:38 4.86573 -74.62012 15542 ft 300 kts 78°
2026-05-06 18:39 4.87045 -74.59975 14890 ft 300 kts 78°
2026-05-06 18:39 4.87519 -74.57942 14269 ft 299 kts 78°
2026-05-06 18:39 4.87987 -74.55921 13912 ft 297 kts 78°
2026-05-06 18:40 4.88899 -74.51964 13173 ft 284 kts 79°
2026-05-06 18:40 4.89347 -74.50010 12940 ft 293 kts 78°
2026-05-06 18:40 4.89804 -74.48011 12791 ft 294 kts 78°
2026-05-06 18:40 4.90262 -74.46022 12666 ft 292 kts 79°
2026-05-06 18:41 4.90698 -74.44065 12636 ft 290 kts 82°
2026-05-06 18:41 4.90523 -74.42070 12584 ft 292 kts 111°
2026-05-06 18:41 4.89386 -74.40439 12511 ft 282 kts 134°
2026-05-06 18:41 4.88035 -74.39133 12408 ft 265 kts 132°
2026-05-06 18:42 4.86845 -74.37811 12320 ft 246 kts 128°
2026-05-06 18:42 4.85816 -74.36512 12149 ft 230 kts 125°
2026-05-06 18:42 4.84881 -74.35271 11987 ft 216 kts 125°
2026-05-06 18:42 4.83996 -74.34098 11911 ft 205 kts 124°
2026-05-06 18:43 4.83176 -74.33005 11874 ft 186 kts 124°
2026-05-06 18:43 4.82417 -74.32001 11755 ft 177 kts 126°
2026-05-06 18:43 4.81693 -74.31040 11574 ft 169 kts 126°
2026-05-06 18:43 4.80990 -74.30105 11411 ft 170 kts 126°
2026-05-06 18:44 4.80261 -74.29136 11226 ft 177 kts 126°
2026-05-06 18:44 4.79515 -74.28147 11035 ft 178 kts 126°
2026-05-06 18:44 4.78772 -74.27161 10837 ft 177 kts 126°
2026-05-06 18:44 4.78034 -74.26183 10634 ft 174 kts 125°
2026-05-06 18:45 4.77330 -74.25248 10449 ft 162 kts 125°
2026-05-06 18:45 4.76678 -74.24381 10256 ft 149 kts 126°
2026-05-06 18:45 4.76089 -74.23600 10066 ft 133 kts 126°
2026-05-06 18:45 4.75718 -74.23107 9969 ft 136 kts 126°
2026-05-06 18:46 4.74896 -74.22016 9729 ft 157 kts 126°
2026-05-06 18:46 4.74208 -74.21102 9524 ft 167 kts 126°
2026-05-06 18:46 4.73524 -74.20198 9286 ft 159 kts 126°
2026-05-06 18:46 4.72882 -74.19341 9033 ft 148 kts 125°
2026-05-06 18:47 4.72262 -74.18527 8815 ft 148 kts 126°
2026-05-06 18:47 4.71655 -74.17698 8607 ft 147 kts 126°
2026-05-06 18:47 4.71026 -74.16883 8430 ft 151 kts 126°
2026-05-06 18:47 4.70390 -74.16039 8365 ft 140 kts 128°
2026-05-06 18:48 4.69933 -74.15432 8365 ft 82 kts 128°
2026-05-06 18:48 4.69736 -74.15132 8365 ft 44 kts 104°
2026-05-06 18:48 4.69706 -74.14943 8364 ft 0 kts 96°
2026-05-06 18:48 4.69705 -74.14934 8364 ft 2 kts 96°
2026-05-06 18:49 4.69701 -74.14911 8364 ft 4 kts 98°
2026-05-06 18:49 4.69700 -74.14875 8365 ft 6 kts 84°
2026-05-06 18:49 4.69720 -74.14834 8365 ft 7 kts 48°
2026-05-06 18:49 4.69766 -74.14799 8365 ft 10 kts 34°
2026-05-06 18:50 4.69828 -74.14756 8366 ft 12 kts 39°
2026-05-06 18:50 4.69889 -74.14706 8366 ft 12 kts 39°
2026-05-06 18:50 4.69963 -74.14649 8366 ft 14 kts 36°
2026-05-06 18:50 4.70033 -74.14599 8365 ft 6 kts 36°
2026-05-06 18:51 4.70045 -74.14572 8366 ft 4 kts 96°
2026-05-06 18:51 4.70026 -74.14548 8365 ft 6 kts 130°
2026-05-06 18:51 4.69993 -74.14509 8365 ft 8 kts 127°
2026-05-06 18:51 4.69954 -74.14457 8366 ft 10 kts 127°
2026-05-06 18:52 4.69929 -74.14424 8366 ft 3 kts 127°
2026-05-06 18:52 4.69912 -74.14419 8366 ft 2 kts 196°
2026-05-06 18:52 4.69894 -74.14433 8366 ft 5 kts 226°
2026-05-06 18:52 4.69884 -74.14444 8365 ft 0 kts 226°
2026-05-06 18:53 4.69877 -74.14451 8365 ft 1 kts 225°